Time,TemperatureF,DewpointF,PressureIn,WindDirection,WindDirectionDegrees,WindSpeedMPH,WindSpeedGustMPH,Humidity,HourlyPrecipIn,Conditions,Clouds,dailyrainin,SoftwareType,DateUTC
2013-03-23 00:02:00,70.0,68.0,29.93,SSE,158,0.0,1.0,94,0.00,,,0.00,,2013-03-23 04:02:00,
2013-03-23 00:12:00,70.0,68.0,29.93,SSE,158,0.0,1.0,94,0.00,,,0.00,,2013-03-23 04:12:00,
2013-03-23 00:23:00,70.0,68.0,29.94,SSE,158,0.0,0.0,94,0.00,,,0.00,,2013-03-23 04:23:00,
2013-03-23 00:32:00,70.0,68.0,29.94,SSE,158,0.0,0.0,94,0.00,,,0.00,,2013-03-23 04:32:00,
2013-03-23 00:43:00,70.0,68.0,29.94,SSE,158,0.0,0.0,94,0.00,,,0.00,,2013-03-23 04:43:00,
2013-03-23 00:53:00,70.0,68.0,29.94,SSE,158,0.0,0.0,94,0.00,,,0.00,,2013-03-23 04:53:00,
2013-03-23 01:02:00,70.0,68.0,29.94,SSE,158,0.0,0.0,94,0.00,,,0.00,,2013-03-23 05:02:00,
2013-03-23 01:12:00,70.0,68.0,29.94,SSE,158,0.0,0.0,94,0.00,,,0.00,,2013-03-23 05:12:00,
2013-03-23 01:22:00,70.0,68.0,29.93,SSE,158,0.0,0.0,94,0.00,,,0.00,,2013-03-23 05:22:00,
2013-03-23 01:32:00,70.0,68.0,29.93,SSE,158,0.0,1.0,94,0.00,,,0.00,,2013-03-23 05:32:00,
2013-03-23 01:42:00,70.0,68.0,29.93,SSE,158,0.0,1.0,94,0.00,,,0.00,,2013-03-23 05:42:00,
2013-03-23 01:52:00,70.0,68.0,29.93,SSE,165,0.0,1.0,94,0.00,,,0.00,,2013-03-23 05:52:00,
2013-03-23 02:02:00,70.0,68.0,29.93,SW,225,0.0,2.0,95,0.00,,,0.00,,2013-03-23 06:02:00,
2013-03-23 02:12:00,70.0,68.0,29.93,SW,225,0.0,2.0,95,0.00,,,0.00,,2013-03-23 06:12:00,
2013-03-23 02:22:00,71.0,69.0,29.94,SW,225,0.0,0.0,95,0.00,,,0.00,,2013-03-23 06:22:00,
2013-03-23 02:32:00,70.0,68.0,29.94,SW,225,0.0,0.0,94,0.00,,,0.00,,2013-03-23 06:32:00,
2013-03-23 02:42:00,70.0,68.0,29.94,SW,225,0.0,0.0,94,0.00,,,0.00,,2013-03-23 06:42:00,
2013-03-23 02:52:00,71.0,69.0,29.94,SW,225,0.0,0.0,95,0.00,,,0.00,,2013-03-23 06:52:00,
2013-03-23 03:02:00,71.0,69.0,29.93,SW,225,0.0,0.0,95,0.00,,,0.00,,2013-03-23 07:02:00,
2013-03-23 03:12:00,71.0,69.0,29.93,SW,225,0.0,0.0,95,0.00,,,0.00,,2013-03-23 07:12:00,
2013-03-23 03:22:00,71.0,69.0,29.92,SW,225,0.0,0.0,95,0.00,,,0.00,,2013-03-23 07:22:00,
2013-03-23 03:32:00,71.0,69.0,29.91,SW,225,0.0,0.0,95,0.00,,,0.00,,2013-03-23 07:32:00,
2013-03-23 03:42:00,71.0,69.0,29.91,SW,225,0.0,0.0,95,0.00,,,0.00,,2013-03-23 07:42:00,
2013-03-23 03:52:00,71.0,69.0,29.91,SW,225,0.0,0.0,95,0.00,,,0.00,,2013-03-23 07:52:00,
2013-03-23 04:02:00,71.0,69.0,29.91,SW,225,0.0,0.0,95,0.00,,,0.00,,2013-03-23 08:02:00,
2013-03-23 04:13:00,71.0,69.0,29.91,SW,225,0.0,0.0,95,0.00,,,0.00,,2013-03-23 08:13:00,
2013-03-23 04:22:00,71.0,69.0,29.91,SW,225,0.0,0.0,95,0.00,,,0.00,,2013-03-23 08:22:00,
2013-03-23 04:32:00,71.0,69.0,29.91,SW,225,0.0,0.0,95,0.00,,,0.00,,2013-03-23 08:32:00,
2013-03-23 04:42:00,71.0,69.0,29.91,SW,225,0.0,0.0,95,0.00,,,0.00,,2013-03-23 08:42:00,
2013-03-23 04:52:00,71.0,69.0,29.90,SSW,201,0.0,1.0,94,0.00,,,0.00,,2013-03-23 08:52:00,
2013-03-23 05:02:00,71.0,69.0,29.90,SSW,201,0.0,1.0,94,0.00,,,0.00,,2013-03-23 09:02:00,
2013-03-23 05:12:00,71.0,69.0,29.90,SSW,201,0.0,1.0,94,0.00,,,0.00,,2013-03-23 09:12:00,
2013-03-23 05:22:00,71.0,69.0,29.90,SSW,201,0.0,1.0,95,0.00,,,0.00,,2013-03-23 09:22:00,
2013-03-23 05:33:00,71.0,69.0,29.89,SSW,201,0.0,1.0,95,0.00,,,0.00,,2013-03-23 09:33:00,
2013-03-23 05:43:00,71.0,69.0,29.89,SSW,201,0.0,1.0,95,0.00,,,0.00,,2013-03-23 09:43:00,
2013-03-23 05:53:00,71.0,69.0,29.89,SSW,201,0.0,0.0,95,0.00,,,0.00,,2013-03-23 09:53:00,
2013-03-23 06:03:00,71.0,69.0,29.89,SSW,200,0.0,1.0,95,0.00,,,0.00,,2013-03-23 10:03:00,
2013-03-23 06:13:00,71.0,69.0,29.89,SSW,200,0.0,1.0,95,0.00,,,0.00,,2013-03-23 10:13:00,
2013-03-23 06:23:00,70.0,68.0,29.89,SSW,200,0.0,0.0,95,0.00,,,0.00,,2013-03-23 10:23:00,
2013-03-23 06:34:00,70.0,68.0,29.89,SSW,200,0.0,1.0,95,0.00,,,0.00,,2013-03-23 10:34:00,
2013-03-23 06:42:00,70.0,68.0,29.89,SSW,200,0.0,1.0,95,0.00,,,0.00,,2013-03-23 10:42:00,
2013-03-23 06:52:00,71.0,69.0,29.89,SW,224,0.0,3.0,95,0.00,,,0.00,,2013-03-23 10:52:00,
2013-03-23 07:03:00,71.0,69.0,29.89,SE,136,2.0,4.0,95,0.00,,,0.00,,2013-03-23 11:03:00,
2013-03-23 07:12:00,71.0,69.0,29.89,SE,136,2.0,4.0,95,0.00,,,0.00,,2013-03-23 11:12:00,
2013-03-23 07:22:00,72.0,70.0,29.90,SSW,192,0.0,1.0,95,0.00,,,0.00,,2013-03-23 11:22:00,
2013-03-23 07:32:00,72.0,70.0,29.91,SSW,192,0.0,1.0,95,0.00,,,0.00,,2013-03-23 11:32:00,
2013-03-23 07:42:00,72.0,70.0,29.91,SSW,192,0.0,1.0,95,0.00,,,0.00,,2013-03-23 11:42:00,
2013-03-23 07:52:00,72.0,70.0,29.91,SSW,196,0.0,1.0,95,0.00,,,0.00,,2013-03-23 11:52:00,
2013-03-23 08:02:00,72.0,70.0,29.92,SSW,196,0.0,1.0,95,0.00,,,0.00,,2013-03-23 12:02:00,
2013-03-23 08:13:00,72.0,70.0,29.92,SSW,196,0.0,1.0,95,0.00,,,0.00,,2013-03-23 12:13:00,
2013-03-23 08:22:00,72.0,70.0,29.93,SSW,196,0.0,0.0,95,0.00,,,0.00,,2013-03-23 12:22:00,
2013-03-23 08:33:00,72.0,70.0,29.92,SSW,196,0.0,0.0,95,0.00,,,0.00,,2013-03-23 12:33:00,
2013-03-23 08:42:00,72.0,70.0,29.92,SSW,196,0.0,0.0,95,0.00,,,0.00,,2013-03-23 12:42:00,
2013-03-23 08:53:00,73.0,72.0,29.93,SSW,196,0.0,0.0,96,0.00,,,0.00,,2013-03-23 12:53:00,
2013-03-23 09:03:00,73.0,72.0,29.93,SE,126,0.0,2.0,96,0.00,,,0.00,,2013-03-23 13:03:00,
2013-03-23 09:12:00,73.0,72.0,29.93,SE,126,0.0,2.0,96,0.00,,,0.00,,2013-03-23 13:12:00,
2013-03-23 09:23:00,74.0,72.0,29.93,ENE,57,0.0,1.0,95,0.00,,,0.00,,2013-03-23 13:23:00,
2013-03-23 09:33:00,75.0,73.0,29.93,South,184,1.0,5.0,95,0.00,,,0.00,,2013-03-23 13:33:00,
2013-03-23 09:43:00,75.0,73.0,29.93,South,184,1.0,5.0,95,0.00,,,0.00,,2013-03-23 13:43:00,
2013-03-23 09:53:00,76.0,73.0,29.93,ENE,72,0.0,4.0,91,0.00,,,0.00,,2013-03-23 13:53:00,
2013-03-23 10:03:00,77.0,73.0,29.93,NW,313,0.0,6.0,87,0.00,,,0.00,,2013-03-23 14:03:00,
2013-03-23 10:12:00,77.0,73.0,29.93,NW,313,0.0,6.0,87,0.00,,,0.00,,2013-03-23 14:12:00,
2013-03-23 10:22:00,79.0,73.0,29.92,SSW,210,0.0,5.0,82,0.00,,,0.00,,2013-03-23 14:22:00,
2013-03-23 10:32:00,80.0,74.0,29.92,South,190,1.0,5.0,82,0.00,,,0.00,,2013-03-23 14:32:00,
2013-03-23 10:43:00,80.0,74.0,29.92,South,190,1.0,5.0,82,0.00,,,0.00,,2013-03-23 14:43:00,
2013-03-23 10:53:00,82.0,74.0,29.92,SW,215,0.0,6.0,76,0.00,,,0.00,,2013-03-23 14:53:00,
2013-03-23 11:03:00,82.0,74.0,29.92,SE,140,0.0,6.0,76,0.00,,,0.00,,2013-03-23 15:03:00,
2013-03-23 11:12:00,82.0,74.0,29.92,SE,140,0.0,6.0,76,0.00,,,0.00,,2013-03-23 15:12:00,
2013-03-23 11:22:00,84.0,74.0,29.92,SW,223,2.0,7.0,72,0.00,,,0.00,,2013-03-23 15:22:00,
2013-03-23 11:33:00,84.0,74.0,29.92,WSW,242,0.0,7.0,72,0.00,,,0.00,,2013-03-23 15:33:00,
2013-03-23 11:43:00,84.0,74.0,29.92,WSW,242,0.0,7.0,72,0.00,,,0.00,,2013-03-23 15:43:00,
2013-03-23 11:53:00,85.0,73.0,29.91,WNW,296,0.0,7.0,67,0.00,,,0.00,,2013-03-23 15:53:00,
2013-03-23 12:03:00,85.0,72.0,29.91,SW,215,2.0,7.0,66,0.00,,,0.00,,2013-03-23 16:03:00,
2013-03-23 12:13:00,85.0,72.0,29.91,SW,215,2.0,7.0,66,0.00,,,0.00,,2013-03-23 16:13:00,
2013-03-23 12:23:00,85.0,73.0,29.90,SSW,209,6.0,10.0,67,0.00,,,0.00,,2013-03-23 16:23:00,
2013-03-23 12:33:00,86.0,72.0,29.90,SW,225,1.0,10.0,63,0.00,,,0.00,,2013-03-23 16:33:00,
2013-03-23 12:43:00,86.0,72.0,29.90,SW,225,1.0,10.0,63,0.00,,,0.00,,2013-03-23 16:43:00,
2013-03-23 12:53:00,87.0,72.0,29.89,SE,146,4.0,7.0,62,0.00,,,0.00,,2013-03-23 16:53:00,
2013-03-23 13:02:00,87.0,70.0,29.89,SE,146,1.0,9.0,58,0.00,,,0.00,,2013-03-23 17:02:00,
2013-03-23 13:12:00,87.0,71.0,29.89,WSW,238,4.0,10.0,59,0.00,,,0.00,,2013-03-23 17:12:00,
2013-03-23 13:22:00,87.0,71.0,29.89,WSW,238,4.0,10.0,59,0.00,,,0.00,,2013-03-23 17:22:00,
2013-03-23 13:33:00,87.0,71.0,29.88,ESE,103,0.0,11.0,59,0.00,,,0.00,,2013-03-23 17:33:00,
2013-03-23 13:42:00,87.0,71.0,29.88,ESE,103,0.0,11.0,59,0.00,,,0.00,,2013-03-23 17:42:00,
2013-03-23 13:53:00,87.0,70.0,29.88,WSW,252,2.0,7.0,58,0.00,,,0.00,,2013-03-23 17:53:00,
2013-03-23 14:03:00,87.0,71.0,29.88,SE,132,3.0,12.0,60,0.00,,,0.00,,2013-03-23 18:03:00,
2013-03-23 14:12:00,87.0,71.0,29.88,SE,132,3.0,12.0,60,0.00,,,0.00,,2013-03-23 18:12:00,
2013-03-23 14:22:00,87.0,71.0,29.88,NE,49,0.0,12.0,59,0.00,,,0.00,,2013-03-23 18:22:00,
2013-03-23 14:32:00,88.0,71.0,29.87,WSW,240,3.0,10.0,57,0.00,,,0.00,,2013-03-23 18:32:00,
2013-03-23 14:42:00,88.0,71.0,29.87,WSW,240,3.0,10.0,57,0.00,,,0.00,,2013-03-23 18:42:00,
2013-03-23 14:52:00,87.0,70.0,29.86,East,95,0.0,10.0,58,0.00,,,0.00,,2013-03-23 18:52:00,
2013-03-23 15:03:00,87.0,70.0,29.85,WSW,248,3.0,10.0,57,0.00,,,0.00,,2013-03-23 19:03:00,
2013-03-23 15:13:00,87.0,70.0,29.85,WSW,248,3.0,10.0,57,0.00,,,0.00,,2013-03-23 19:13:00,
2013-03-23 15:23:00,87.0,70.0,29.85,NW,311,3.0,7.0,58,0.00,,,0.00,,2013-03-23 19:23:00,
2013-03-23 15:32:00,86.0,69.0,29.84,ESE,121,2.0,13.0,58,0.00,,,0.00,,2013-03-23 19:32:00,
2013-03-23 15:42:00,86.0,69.0,29.84,ESE,121,2.0,13.0,58,0.00,,,0.00,,2013-03-23 19:42:00,
2013-03-23 15:53:00,87.0,71.0,29.84,SE,128,2.0,8.0,59,0.00,,,0.00,,2013-03-23 19:53:00,
2013-03-23 16:03:00,87.0,69.0,29.83,WSW,241,3.0,10.0,56,0.00,,,0.00,,2013-03-23 20:03:00,
2013-03-23 16:13:00,87.0,69.0,29.83,WSW,241,3.0,10.0,56,0.00,,,0.00,,2013-03-23 20:13:00,
2013-03-23 16:22:00,86.0,68.0,29.83,East,89,3.0,10.0,55,0.00,,,0.00,,2013-03-23 20:22:00,
2013-03-23 16:32:00,86.0,69.0,29.83,East,91,5.0,10.0,57,0.00,,,0.00,,2013-03-23 20:32:00,
2013-03-23 16:42:00,86.0,69.0,29.83,East,91,5.0,10.0,57,0.00,,,0.00,,2013-03-23 20:42:00,
2013-03-23 16:53:00,87.0,69.0,29.82,West,274,2.0,6.0,56,0.00,,,0.00,,2013-03-23 20:53:00,
2013-03-23 17:02:00,86.0,68.0,29.81,SW,221,3.0,11.0,56,0.00,,,0.00,,2013-03-23 21:02:00,
2013-03-23 17:12:00,86.0,68.0,29.81,SW,221,3.0,11.0,56,0.00,,,0.00,,2013-03-23 21:12:00,
2013-03-23 17:22:00,86.0,68.0,29.81,SW,217,4.0,9.0,56,0.00,,,0.00,,2013-03-23 21:22:00,
2013-03-23 17:33:00,85.0,68.0,29.81,SSW,212,3.0,11.0,57,0.00,,,0.00,,2013-03-23 21:33:00,
2013-03-23 17:43:00,85.0,68.0,29.81,SSW,212,3.0,11.0,57,0.00,,,0.00,,2013-03-23 21:43:00,
2013-03-23 17:54:00,85.0,69.0,29.81,SSW,213,5.0,10.0,59,0.00,,,0.00,,2013-03-23 21:54:00,
2013-03-23 18:03:00,84.0,69.0,29.81,NW,311,0.0,10.0,60,0.00,,,0.00,,2013-03-23 22:03:00,
2013-03-23 18:13:00,84.0,69.0,29.81,NW,311,0.0,10.0,60,0.00,,,0.00,,2013-03-23 22:13:00,
2013-03-23 18:23:00,84.0,70.0,29.81,ESE,109,0.0,5.0,62,0.00,,,0.00,,2013-03-23 22:23:00,
2013-03-23 18:33:00,83.0,69.0,29.80,SSW,202,3.0,8.0,63,0.00,,,0.00,,2013-03-23 22:33:00,
2013-03-23 18:42:00,83.0,69.0,29.80,SSW,202,3.0,8.0,63,0.00,,,0.00,,2013-03-23 22:42:00,
2013-03-23 18:53:00,82.0,69.0,29.81,WSW,250,1.0,4.0,65,0.00,,,0.00,,2013-03-23 22:53:00,
2013-03-23 19:02:00,82.0,69.0,29.81,WSW,254,0.0,10.0,66,0.00,,,0.00,,2013-03-23 23:02:00,
2013-03-23 19:13:00,82.0,69.0,29.81,WSW,254,0.0,10.0,66,0.00,,,0.00,,2013-03-23 23:13:00,
2013-03-23 19:23:00,80.0,69.0,29.80,WSW,244,3.0,5.0,69,0.00,,,0.00,,2013-03-23 23:23:00,
2013-03-23 19:33:00,80.0,69.0,29.81,WSW,246,0.0,6.0,69,0.00,,,0.00,,2013-03-23 23:33:00,
2013-03-23 19:43:00,80.0,69.0,29.81,WSW,246,0.0,6.0,69,0.00,,,0.00,,2013-03-23 23:43:00,
2013-03-23 19:52:00,79.0,69.0,29.81,WSW,239,0.0,2.0,71,0.00,,,0.00,,2013-03-23 23:52:00,
2013-03-23 20:02:00,78.0,68.0,29.81,WSW,239,0.0,2.0,71,0.00,,,0.00,,2013-03-24 00:02:00,
2013-03-23 20:13:00,78.0,68.0,29.81,WSW,239,0.0,2.0,71,0.00,,,0.00,,2013-03-24 00:13:00,
2013-03-23 20:22:00,77.0,68.0,29.82,SW,230,0.0,2.0,73,0.00,,,0.00,,2013-03-24 00:22:00,
2013-03-23 20:32:00,77.0,68.0,29.82,SW,230,0.0,2.0,75,0.00,,,0.00,,2013-03-24 00:32:00,
2013-03-23 20:42:00,77.0,68.0,29.82,SW,230,0.0,2.0,75,0.00,,,0.00,,2013-03-24 00:42:00,
2013-03-23 20:53:00,75.0,67.0,29.83,SW,230,0.0,0.0,77,0.00,,,0.00,,2013-03-24 00:53:00,
2013-03-23 21:02:00,75.0,68.0,29.83,SW,230,0.0,0.0,79,0.00,,,0.00,,2013-03-24 01:02:00,
2013-03-23 21:12:00,75.0,68.0,29.83,SW,230,0.0,0.0,79,0.00,,,0.00,,2013-03-24 01:12:00,
2013-03-23 21:22:00,74.0,68.0,29.83,SW,230,0.0,0.0,81,0.00,,,0.00,,2013-03-24 01:22:00,
2013-03-23 21:32:00,73.0,67.0,29.84,SW,230,0.0,0.0,82,0.00,,,0.00,,2013-03-24 01:32:00,
2013-03-23 21:42:00,73.0,67.0,29.84,SW,230,0.0,0.0,82,0.00,,,0.00,,2013-03-24 01:42:00,
2013-03-23 21:53:00,72.0,67.0,29.83,SW,230,0.0,0.0,84,0.00,,,0.00,,2013-03-24 01:53:00,
2013-03-23 22:03:00,71.0,66.0,29.84,SW,230,0.0,0.0,85,0.00,,,0.00,,2013-03-24 02:03:00,
2013-03-23 22:12:00,71.0,66.0,29.84,SW,230,0.0,0.0,85,0.00,,,0.00,,2013-03-24 02:12:00,
2013-03-23 22:22:00,70.0,66.0,29.84,SW,230,0.0,0.0,86,0.00,,,0.00,,2013-03-24 02:22:00,
2013-03-23 22:32:00,70.0,66.0,29.85,SW,230,0.0,0.0,86,0.00,,,0.00,,2013-03-24 02:32:00,
2013-03-23 22:42:00,70.0,66.0,29.85,SW,230,0.0,0.0,86,0.00,,,0.00,,2013-03-24 02:42:00,
2013-03-23 22:52:00,69.0,65.0,29.85,SW,230,0.0,0.0,88,0.00,,,0.00,,2013-03-24 02:52:00,
2013-03-23 23:02:00,69.0,65.0,29.86,SW,230,0.0,0.0,88,0.00,,,0.00,,2013-03-24 03:02:00,
2013-03-23 23:12:00,69.0,65.0,29.86,SW,230,0.0,0.0,88,0.00,,,0.00,,2013-03-24 03:12:00,
2013-03-23 23:23:00,68.0,65.0,29.86,SW,230,0.0,0.0,89,0.00,,,0.00,,2013-03-24 03:23:00,
2013-03-23 23:33:00,68.0,65.0,29.86,SW,230,0.0,0.0,89,0.00,,,0.00,,2013-03-24 03:33:00,
2013-03-23 23:42:00,68.0,65.0,29.86,SW,230,0.0,0.0,89,0.00,,,0.00,,2013-03-24 03:42:00,
2013-03-23 23:53:00,68.0,65.0,29.86,SW,230,0.0,0.0,90,0.00,,,0.00,,2013-03-24 03:53:00,